CAPE
0 0 0 0 0 0 0 0 0 0 0 0 0 0 0 0 0 0 0 0 0 0 0 0 0 0 0 3 45 187 87 30 123 137 88 26 157 35 23 154 120 22 80 310 437
0 0 0 0 0 0 0 0 0 0 0 0 0 0 0 0 0 0 0 0 0 0 0 0 0 0 0 0 9 23 57 22 146 156 69 47 35 21 246 309 312 19 46 398 626
0 0 0 0 0 0 0 0 0 0 0 0 0 0 0 0 0 0 0 0 0 0 0 0 0 0 0 0 1 0 26 11 105 200 49 32 17 166 222 194 143 96 158 417 472
0 0 0 0 0 0 0 0 0 0 0 0 0 0 0 0 0 0 0 0 0 0 0 0 0 0 0 0 0 0 4 31 131 139 20 19 52 272 359 288 14 5 161 333 315
0 0 0 0 0 0 0 0 0 0 0 0 0 0 0 0 0 0 0 0 0 0 0 0 0 0 0 0 0 0 0 43 197 43 49 76 150 402 511 183 0 0 68 227 232
0 0 0 0 0 0 0 0 0 0 0 0 0 0 0 0 0 0 0 0 0 0 0 0 0 0 0 0 0 0 0 33 91 42 37 149 300 519 500 137 0 0 0 47 181
0 0 0 0 0 0 0 0 0 0 0 0 0 0 0 0 0 0 0 0 0 0 0 0 0 0 0 0 0 0 0 46 117 78 56 333 262 412 537 275 7 0 0 0 2
0 0 0 0 0 0 0 0 0 0 0 0 0 0 0 0 0 0 0 0 0 0 0 0 0 0 0 0 0 0 0 3 85 92 123 15 0 676 280 231 59 20 1 0 0
0 0 0 0 0 0 0 0 0 0 0 0 0 0 0 0 0 0 0 0 0 0 0 0 0 0 0 0 0 0 0 4 29 151 157 96 5 653 204 165 178 16 66 58 16
0 0 0 0 0 0 0 0 0 0 0 0 0 0 0 0 0 0 0 0 0 0 0 0 0 0 0 0 0 0 0 0 0 19 120 170 31 505 90 98 243 199 294 198 170
0 0 0 0 0 0 0 0 0 0 0 0 0 0 0 0 0 0 0 0 0 0 0 0 0 0 0 0 0 0 0 0 0 0 18 86 36 62 478 155 349 452 557 475 322
0 0 0 0 0 0 0 0 0 0 0 0 0 0 0 0 0 0 0 0 0 0 0 0 0 0 0 0 0 0 0 0 0 5 25 8 0 156 511 401 392 465 601 603 388
0 0 0 0 0 0 0 0 0 0 0 0 0 0 0 0 0 0 0 0 0 0 0 0 0 0 0 0 0 0 0 0 0 0 0 0 3 20 300 490 314 212 248 273 277
0 0 0 0 0 0 0 0 0 0 0 0 0 0 0 0 0 0 0 0 0 0 0 0 0 0 0 0 0 0 0 0 2 0 3 0 0 0 150 204 315 300 212 189 57
0 0 0 0 0 0 0 0 0 0 0 0 0 0 0 0 0 0 0 0 0 0 0 0 0 0 0 0 0 0 0 0 0 0 0 0 0 0 113 187 240 326 246 68 146
0 0 0 0 0 0 0 0 0 0 0 0 0 0 0 0 0 0 0 0 0 0 0 0 0 0 0 0 0 0 0 0 0 0 0 0 0 0 2 67 346 409 228 106 196
0 0 0 0 0 0 0 0 0 0 0 0 0 0 0 0 0 0 0 0 0 0 0 0 0 0 0 0 0 0 0 0 0 0 0 0 0 0 0 0 157 390 569 215 174
0 0 0 0 0 0 0 0 0 0 0 0 0 0 0 0 0 0 0 0 0 0 0 0 0 0 0 0 0 0 0 0 0 0 0 0 0 0 0 0 0 74 356 335 161
0 0 0 0 0 0 0 0 0 0 0 0 0 0 0 0 0 0 0 0 0 0 0 0 0 0 0 0 0 0 0 0 0 0 0 0 0 0 0 0 0 3 168 285 242
0 0 0 0 0 0 0 0 0 0 0 0 0 0 0 0 0 0 0 0 0 0 0 0 0 0 0 0 0 0 0 0 0 0 0 0 0 0 0 0 4 24 153 264 396
0 0 0 0 0 0 0 0 0 0 0 0 0 0 0 0 0 0 0 0 0 0 0 0 0 0 0 0 0 0 0 0 0 0 0 0 0 0 0 0 39 111 156 290 599
0 0 0 0 0 0 0 0 0 0 0 0 0 0 0 0 0 0 0 0 0 0 0 0 0 0 0 0 0 0 0 0 0 0 0 0 0 0 8 64 362 413 472 858 804
0 0 0 0 0 0 0 0 0 0 0 0 0 0 0 0 0 0 0 0 0 0 0 0 0 0 0 0 0 0 0 0 0 0 0 0 0 0 1 79 294 422 637 686 342
0 0 0 0 0 0 0 0 0 0 0 0 0 0 0 0 0 0 0 0 0 0 0 0 0 0 0 0 0 0 0 0 0 0 0 0 0 0 0 12 301 456 602 650 340
0 0 0 0 0 0 0 0 0 0 0 0 0 0 0 0 0 0 0 0 0 0 0 0 0 0 0 0 0 0 0 0 0 0 0 0 0 0 0 71 358 429 552 592 166
0 0 0 0 0 0 0 0 0 0 0 0 0 0 0 0 0 0 0 0 1 0 0 0 0 0 0 0 0 0 0 0 0 0 0 0 0 0 7 120 350 377 464 481 388
0 0 0 0 0 0 0 0 0 0 0 0 0 0 6 14 5 0 0 0 15 19 15 1 4 5 0 0 0 0 0 0 0 0 0 0 0 0 0 90 374 349 508 514 438
CIN
0 0 0 0 0 0 0 0 0 0 0 0 0 0 0 0 0 0 0 0 0 0 0 0 0 0 0 -224 -200 -230 -154 -109 -125 -82 -67 -240 -141 -271 -276 -152 -169 -244 -222 -183 -218
0 0 0 0 0 0 0 0 0 0 0 0 0 0 0 0 0 0 0 0 0 0 0 0 0 0 0 0 -154 -116 -73 -57 -126 -95 -93 -159 -194 -275 -204 -158 -132 -309 -370 -236 -188
0 0 0 0 0 0 0 0 0 0 0 0 0 0 0 0 0 0 0 0 0 0 0 0 0 0 0 0 -25 0 -29 -76 -80 -124 -144 -173 -250 -268 -172 -134 -170 -302 -338 -229 -191
0 0 0 0 0 0 0 0 0 0 0 0 0 0 0 0 0 0 0 0 0 0 0 0 0 0 0 0 0 0 -57 -38 -106 -153 -162 -157 -247 -229 -170 -133 -306 -406 -361 -293 -206
0 0 0 0 0 0 0 0 0 0 0 0 0 0 0 0 0 0 0 0 0 0 0 0 0 0 0 0 0 0 0 -84 -150 -191 -175 -247 -173 -194 -183 -241 0 0 -416 -307 -259
0 0 0 0 0 0 0 0 0 0 0 0 0 0 0 0 0 0 0 0 0 0 0 0 0 0 0 0 0 0 0 -117 -201 -177 -197 -191 -218 -230 -234 -320 0 0 0 -250 -247
0 0 0 0 0 0 0 0 0 0 0 0 0 0 0 0 0 0 0 0 0 0 0 0 0 0 0 0 0 0 -10 -128 -198 -169 -187 -185 -127 -135 -258 -270 -297 0 0 0 -21
0 0 0 0 0 0 0 0 0 0 0 0 0 0 0 0 0 0 0 0 0 0 0 0 0 0 0 0 0 0 0 -14 -129 -161 -146 -106 0 -188 -354 -286 -298 -330 -64 0 0
0 0 0 0 0 0 0 0 0 0 0 0 0 0 0 0 0 0 0 0 0 0 0 0 0 0 0 0 0 0 0 -42 -77 -139 -98 -175 -60 -162 -370 -353 -312 -295 -295 -298 -329
0 0 0 0 0 0 0 0 0 0 0 0 0 0 0 0 0 0 0 0 0 0 0 0 0 0 0 0 0 0 0 0 0 -77 -100 -109 -88 -189 -348 -411 -278 -270 -308 -270 -257
0 0 0 0 0 0 0 0 0 0 0 0 0 0 0 0 0 0 0 0 0 0 0 0 0 0 0 0 0 0 0 0 0 0 -63 -84 -81 -105 -270 -376 -309 -273 -273 -265 -207
0 0 0 0 0 0 0 0 0 0 0 0 0 0 0 0 0 0 0 0 0 0 0 0 0 0 0 0 0 0 0 0 0 -44 -52 -112 -4 -144 -251 -278 -317 -269 -258 -258 -224
0 0 0 0 0 0 0 0 0 0 0 0 0 0 0 0 0 0 0 0 0 0 0 0 0 0 0 0 0 0 0 0 0 0 0 0 -27 -130 -261 -364 -351 -330 -327 -307 -274
0 0 0 0 0 0 0 0 0 0 0 0 0 0 0 0 0 0 0 0 0 0 0 0 0 0 0 0 0 0 0 0 -35 0 -26 0 0 0 -240 -286 -359 -306 -295 -277 -320
0 0 0 0 0 0 0 0 0 0 0 0 0 0 0 0 0 0 0 0 0 0 0 0 0 0 0 0 0 0 0 0 0 0 0 0 0 0 -297 -207 -277 -318 -270 -348 -382
0 0 0 0 0 0 0 0 0 0 0 0 0 0 0 0 0 0 0 0 0 0 0 0 0 0 0 0 0 0 0 0 0 0 0 0 0 0 -25 -107 -219 -261 -281 -282 -350
0 0 0 0 0 0 0 0 0 0 0 0 0 0 0 0 0 0 0 0 0 0 0 0 0 0 0 0 0 0 0 0 0 0 0 0 0 0 0 0 -120 -134 -196 -252 -383
0 0 0 0 0 0 0 0 0 0 0 0 0 0 0 0 0 0 0 0 0 0 0 0 0 0 0 0 0 0 0 0 0 0 0 0 -3 0 0 0 0 -175 -167 -223 -318
0 0 0 0 0 0 0 0 0 0 0 0 0 0 0 0 0 0 0 0 0 0 0 0 0 0 0 0 0 0 0 0 0 0 0 0 0 0 0 0 0 -52 -270 -235 -257
0 0 0 0 0 0 0 0 0 0 0 0 0 0 0 0 0 0 0 0 0 0 0 0 0 0 0 0 0 0 0 0 0 0 0 0 0 0 0 0 -177 -225 -269 -312 -325
0 0 0 0 0 0 0 0 0 0 0 0 0 0 0 0 0 0 0 0 0 0 0 0 0 0 0 0 0 0 0 0 0 0 0 0 0 0 0 0 -116 -148 -270 -274 -217
0 0 0 0 0 0 0 0 0 0 0 0 0 0 0 0 0 0 0 0 0 0 0 0 0 0 0 0 0 0 0 0 0 0 0 0 0 -9 -192 -218 -239 -154 -167 -180 -158
0 0 0 0 0 0 0 0 0 0 0 0 0 0 0 0 0 0 0 0 0 0 0 0 0 0 0 0 0 0 0 0 0 0 0 0 0 0 -62 -210 -219 -139 -173 -205 -250
0 0 0 0 0 0 0 0 0 0 0 0 0 0 0 0 0 0 0 0 0 0 0 0 0 0 0 0 0 0 0 0 0 0 0 0 0 0 0 -208 -209 -249 -263 -179 -248
0 0 0 0 0 0 0 0 0 0 0 0 0 0 0 0 0 0 0 0 0 0 0 0 0 0 0 0 0 0 0 0 0 0 0 0 0 0 0 -213 -224 -343 -266 -203 -273
0 0 0 0 0 0 0 0 0 0 0 0 0 0 0 0 0 0 0 0 -55 0 0 0 0 0 0 0 0 0 0 0 0 0 0 0 0 0 -94 -322 -299 -298 -260 -250 -253
0 0 0 0 0 0 0 0 0 0 0 0 0 0 -45 -158 -242 0 0 0 -212 -183 -151 -31 -108 -88 0 0 0 0 0 0 0 0 0 0 0 0 0 -240 -198 -322 -331 -266 -240
Wind_Speed
25 25 26 26 27 27 28 29 29 28 27 26 25 25 25 25 25 23 27 24 14 19 19 17 13 8 12 14 14 15 17 16 15 17 18 19 20 18 17 19 17 15 17 21 22
26 26 27 27 28 29 30 30 29 28 27 26 26 25 24 25 24 27 26 28 27 22 19 18 18 18 16 15 17 13 14 14 15 17 20 20 20 21 19 18 16 20 22 23 22
27 28 28 29 29 30 31 30 29 28 27 25 25 24 24 23 22 23 18 22 27 23 19 18 18 17 17 18 21 13 8 14 14 16 19 21 21 20 23 18 17 20 22 23 24
28 29 29 30 31 31 31 30 29 27 26 25 23 23 23 19 12 15 17 12 13 16 14 16 16 18 17 18 19 16 14 14 15 17 19 20 21 20 15 18 22 24 25 25 24
30 31 31 31 31 31 31 30 29 28 28 25 24 23 20 17 16 21 19 17 15 12 14 14 16 14 17 16 18 17 22 10 14 18 19 19 18 19 18 21 22 22 24 25 25
30 31 32 32 32 32 31 31 31 30 29 26 24 22 19 20 17 18 19 22 19 16 13 12 13 17 9 20 18 22 25 11 15 17 17 16 17 15 16 20 23 24 23 22 23
32 32 33 34 34 34 33 33 33 32 29 24 21 19 20 25 16 24 23 19 15 16 16 16 17 18 21 21 22 22 16 14 13 17 15 17 11 13 17 20 21 20 19 21 21
33 33 34 34 34 35 34 34 34 31 25 20 17 17 21 19 22 26 22 21 18 19 16 22 16 18 15 21 21 19 15 12 13 13 15 15 9 13 17 19 19 18 18 19 20
33 33 34 34 34 34 34 34 30 24 16 15 17 18 22 23 20 19 13 16 17 17 19 20 16 14 16 18 19 16 15 17 12 14 12 14 9 14 17 15 17 17 16 16 18
32 33 33 33 34 33 34 30 22 18 15 17 18 20 19 14 18 21 14 13 15 18 17 15 15 15 14 15 13 18 20 19 16 12 7 11 16 12 16 13 15 15 14 15 16
32 32 32 32 32 32 27 19 21 20 20 22 24 22 28 24 21 16 15 15 17 16 16 17 18 14 17 15 16 23 22 25 24 9 7 9 15 16 15 13 15 15 14 15 16
31 31 30 30 31 27 18 17 16 21 27 27 28 25 23 18 20 18 12 11 15 17 17 20 20 19 24 22 23 26 25 25 24 17 17 8 9 9 15 15 15 17 15 14 17
30 31 30 30 29 17 22 17 22 24 22 24 17 17 14 8 14 18 9 10 13 16 18 20 21 19 21 24 27 26 21 25 25 25 17 16 14 4 12 12 15 17 16 15 19
30 30 30 31 17 23 18 22 26 19 21 19 16 16 7 10 18 11 8 10 15 16 18 24 26 24 25 25 20 26 19 27 28 21 19 20 11 8 11 14 14 17 19 18 18
29 29 29 26 25 21 20 26 24 14 18 14 13 12 7 5 14 17 9 12 12 14 16 20 20 22 22 25 17 27 25 31 25 19 17 19 11 17 7 16 18 19 23 22 17
28 28 29 22 24 23 24 24 15 16 16 14 11 11 10 11 14 14 9 12 14 16 20 24 22 19 21 26 26 28 26 21 17 16 21 14 17 19 4 11 14 17 21 24 18
29 29 29 23 18 16 23 16 14 13 16 15 17 12 11 10 15 15 11 11 12 15 24 26 32 29 24 28 23 20 20 21 18 21 29 18 20 25 20 6 12 15 16 21 12
31 30 22 4 15 19 16 11 13 14 14 19 22 17 9 12 12 11 12 12 17 18 18 19 22 21 17 19 21 23 19 20 25 24 31 20 20 19 18 12 18 13 20 19 21
31 25 23 17 6 8 9 10 11 10 16 22 16 11 11 15 11 12 13 15 14 6 12 17 22 18 17 16 16 21 23 21 20 20 22 22 24 27 19 17 9 17 13 17 18
27 23 19 11 9 6 10 12 14 12 19 18 13 12 15 17 12 16 11 16 12 10 11 21 26 24 21 18 20 19 15 20 20 19 25 26 26 26 23 12 4 11 18 17 12
19 17 16 9 6 10 14 14 16 17 19 15 14 14 17 18 16 18 16 20 18 20 12 17 21 22 20 20 24 22 21 22 20 20 23 30 28 18 12 8 8 4 21 17 18
17 14 10 6 11 12 13 13 16 20 18 17 14 13 15 23 19 19 17 18 24 13 11 17 17 28 29 26 22 23 29 23 26 24 25 27 33 22 10 10 5 12 15 11 8
16 13 8 12 14 13 16 19 20 22 20 15 17 19 20 18 19 19 19 21 22 17 13 12 22 27 26 24 21 21 18 18 20 20 22 26 30 22 19 12 1 8 9 9 7
15 13 13 9 15 15 21 23 15 18 19 13 22 24 21 19 18 20 22 20 21 19 18 12 15 19 17 22 19 23 20 18 17 22 23 28 35 26 21 14 4 5 3 12 12
14 14 13 13 14 19 17 16 20 16 11 19 18 25 24 23 22 22 23 22 21 20 17 15 20 22 23 21 18 21 23 19 22 21 22 22 28 33 9 4 4 6 10 17 14
15 16 16 16 17 16 15 14 17 20 16 20 23 28 23 22 26 28 23 24 22 23 19 19 18 18 23 21 23 26 27 23 25 23 24 28 32 23 6 3 5 15 16 18 17
16 16 14 16 17 14 14 19 19 22 17 22 24 24 21 24 27 24 18 21 22 23 22 21 21 22 25 23 24 30 31 30 29 26 23 29 31 15 7 6 12 15 15 18 17
Wind_Direction
315 313 312 311 311 312 313 313 307 303 295 288 283 279 275 275 268 264 219 203 262 252 263 271 98 231 216 105 80 59 59 89 96 83 89 111 82 88 85 79 91 104 81 107 111
314 311 309 308 308 309 310 312 308 300 296 289 285 279 278 280 275 237 206 224 223 247 270 280 289 294 319 309 351 76 84 107 126 97 91 96 75 79 85 88 88 58 72 102 110
312 310 308 307 307 308 308 305 299 296 295 287 281 277 275 278 282 235 280 256 230 247 273 282 300 330 328 17 17 65 111 109 125 97 104 85 79 84 65 74 89 97 99 114 120
313 311 309 307 306 305 302 297 294 292 290 283 277 274 273 293 313 291 275 299 278 268 295 299 310 316 353 294 346 40 21 114 96 98 108 78 79 87 94 79 103 105 108 116 126
312 310 309 306 304 300 297 293 290 291 290 284 283 283 291 298 289 255 266 275 279 292 291 305 315 353 312 238 281 35 337 18 83 100 99 92 97 80 90 96 99 100 108 120 128
306 307 308 305 301 298 294 292 289 288 290 290 296 300 303 293 292 280 277 268 274 283 295 314 328 319 302 277 304 285 330 49 102 109 102 84 90 101 105 103 110 119 115 128 134
307 306 303 304 301 298 294 291 289 289 291 300 307 310 302 221 300 259 267 269 285 281 288 298 304 299 283 271 302 299 17 41 104 120 116 98 142 96 110 116 114 117 123 130 142
308 307 304 303 301 298 295 292 289 285 292 312 319 316 295 289 278 262 265 268 278 275 283 278 308 292 305 294 307 313 20 51 113 116 123 148 158 127 118 120 120 120 129 141 144
306 305 303 302 300 298 295 291 288 299 318 325 313 311 289 281 279 277 290 280 283 285 280 283 295 301 300 300 297 316 335 333 54 133 80 148 123 146 140 120 127 135 138 136 156
304 304 302 300 298 297 293 286 296 312 319 317 305 301 292 311 290 278 290 288 286 285 281 283 283 288 296 301 306 305 301 295 5 127 133 161 208 151 148 145 142 149 145 150 157
302 301 300 295 296 294 295 300 299 304 308 296 290 288 270 288 290 285 289 282 282 285 274 279 270 270 275 291 298 281 290 279 254 63 72 159 199 191 158 152 155 157 161 165 171
299 299 296 293 293 288 310 307 326 313 294 283 276 284 283 302 296 291 293 292 275 269 276 272 268 269 268 277 280 271 284 272 265 337 339 41 176 138 156 169 160 167 170 162 164
297 298 298 295 289 305 289 308 309 307 312 299 309 297 291 323 302 287 302 293 284 272 271 269 270 272 270 265 265 269 293 280 253 312 343 357 350 55 163 166 170 177 174 173 173
296 298 301 301 313 297 296 304 297 310 304 308 316 311 310 313 300 297 303 297 291 278 272 273 265 267 263 262 274 272 287 285 261 302 322 338 11 141 163 178 177 183 184 180 174
292 292 300 300 284 289 295 293 294 326 296 322 327 334 329 326 315 308 285 293 291 286 276 274 273 264 263 258 277 262 289 280 288 303 323 330 357 338 47 188 191 183 186 185 172
285 284 295 307 287 275 277 283 318 299 297 311 333 336 346 294 308 323 291 298 300 290 283 271 275 272 268 262 270 273 288 303 295 308 305 329 338 325 47 196 175 181 183 192 168
284 280 280 298 298 308 283 300 305 299 303 312 313 328 342 343 295 301 301 296 295 293 279 273 262 266 270 264 275 283 292 292 286 293 284 315 322 280 298 21 147 172 174 177 142
287 279 310 18 293 278 292 307 300 306 310 317 302 297 327 333 314 309 307 302 290 285 292 285 275 262 266 264 271 278 284 285 283 287 283 306 304 315 329 332 179 159 170 165 172
293 319 308 312 104 314 316 304 308 319 316 306 307 318 311 321 330 319 315 306 295 281 285 289 274 270 268 266 285 281 276 286 284 292 295 288 298 303 322 317 327 172 144 162 172
322 322 318 343 90 342 308 295 291 310 307 326 330 315 311 311 316 321 312 323 300 290 284 282 271 269 268 274 279 282 289 283 282 288 282 282 291 289 305 333 101 279 156 162 147
343 331 328 69 23 316 294 291 293 302 314 319 321 319 312 308 309 314 309 297 309 292 284 279 274 266 270 269 269 283 284 280 284 288 282 278 278 305 340 12 74 314 168 157 153
343 335 340 55 320 315 307 304 306 296 305 305 314 317 324 298 301 306 312 307 307 301 282 278 285 262 262 267 280 287 281 282 273 279 282 281 267 302 330 340 65 129 150 135 93
335 327 344 311 309 313 307 302 298 288 291 300 300 305 310 313 305 301 306 305 309 315 298 282 270 264 266 269 284 283 293 292 286 288 281 275 273 291 296 317 139 144 149 120 109
324 318 314 312 304 314 302 294 306 307 296 312 294 299 301 301 302 298 294 304 309 320 311 288 282 269 267 270 282 280 288 298 293 286 284 280 254 284 288 294 286 154 122 143 140
322 316 325 314 309 304 308 313 308 315 325 312 304 301 299 294 296 294 293 299 304 305 319 307 288 271 271 273 276 284 286 293 284 287 289 289 278 273 283 262 173 137 142 157 162
313 312 312 310 311 312 316 320 314 303 310 304 300 298 303 298 292 284 289 290 288 295 306 304 295 294 274 279 278 277 276 288 286 285 286 282 276 286 293 327 137 154 160 171 172
319 317 316 308 307 312 317 304 303 299 300 304 303 302 305 303 293 289 296 290 291 288 294 296 296 292 277 286 284 277 271 271 283 282 290 284 273 292 261 177 153 165 168 169 178